Location: Bruchhof
(51.8738°N, 9.9256°E)
Time: 08:14:19
(UTC+00:00)

Cosmos 1844 Rocket - Pass Details

Date: 15 June 2024
Orbit: 825 x 843 km, 71.0° (Epoch: 22 July)

Event Time Altitude Azimuth Distance (km) Brightness Sun altitude
Exits shadow 01:17:57 - 169° (S) 2,733 4.9 -10.5°
Reaches altitude 10° 01:18:51 10° 165° (SSE) 2,427 4.7 -10.5°
Maximum altitude 01:23:38 30° 106° (ESE) 1,435 4.1 -10.1°
Drops below altitude 10° 01:28:26 10° 46° (NE) 2,436 6.5 -9.8°
Sets 01:31:06 0° 37° (NE) 3,373 8.1 -9.6°
